Umtata, South Africa

1:49 PM SAST on January 20, 2018 (GMT +0200)
Umtata

Weather History for FAUT - August, 2014

Change the Weather History Date:

Monday, August 18, 2014

  Actual Average Record
Temperature  
Mean Temperature 71 °F -  
Max Temperature 88 °F - - ()
Min Temperature 54 °F - - ()
Cooling Degree Days 6    
Growing Degree Days 21 (Base 50)    
Moisture  
Dew Point 45 °F    
Average Humidity 47    
Maximum Humidity 88    
Minimum Humidity 9    
Precipitation  
Precipitation 0.00 in - - ()
Sea Level Pressure  
Sea Level Pressure 30.01 in    
Wind  
Wind Speed 4 mph ()    
Max Wind Speed 15 mph    
Max Gust Speed -    
Visibility 9.1 miles    
Events      
T = Trace of Precipitation, MM = Missing Value Source: Averaged Metar Reports

Daily Weather History Graph

Daily Weather History Graph

Search for Another Location

Airport or City:

Trip Planner

Search our weather history database for the weather conditions in past years. The results will help you decide how hot, cold, wet, or windy it might be!

Date:

Astronomy

Aug. 18, 2014 Rise Set
Actual Time 6:38 AM SAST 5:40 PM SAST
Civil Twilight 6:13 AM SAST 6:05 PM SAST
Nautical Twilight 5:44 AM SAST 6:34 PM SAST
Astronomical Twilight 5:16 AM SAST 7:02 PM SAST
Moon 12:58 AM SAST (8/18) 11:51 AM SAST (8/18)
Length of Visible Light 11h 52m
Length of Day
11h 02m
Last Quarter, 41% of the Moon is Illuminated
Aug 18
Last Quarter
Aug 25
New
Sep 2
First Quarter
Sep 9
Full
Sep 16
Last Quarter

Hourly Weather History & Observations

Time (SAST) Temp. Dew Point Humidity Pressure Visibility Wind Dir Wind Speed Gust Speed Precip Events Conditions
12:00 AM 59.0 °F 53.6 °F 82% 30.12 in - WNW 1.2 mph - N/A   Unknown
1:00 AM 59.0 °F 53.6 °F 82% 30.09 in - SSW 2.3 mph - N/A   Unknown
2:00 AM - - %  in - Calm Calm - -  
2:00 AM - - N/A% 0.00 in - North - - N/A   Unknown
3:00 AM - - N/A% 0.00 in - North - - N/A   Unknown
4:00 AM - - N/A% 0.00 in - North - - N/A   Unknown
5:00 AM 56 °F 53 °F 84%  in 12 mi SW 3.5 mph - -  
5:00 AM 55.4 °F 51.8 °F 88% 30.06 in - SW 2.3 mph - N/A   Clear
6:00 AM 55.4 °F 51.8 °F 88% 30.06 in - ENE 2.3 mph - N/A   Clear
7:00 AM 53.6 °F 50.0 °F 88% 30.06 in - South 1.2 mph - N/A   Clear
7:19 AM 57.2 °F 53.6 °F 88% 30.06 in - South 2.3 mph - N/A   Clear
7:47 AM 60.8 °F 55.4 °F 82% 30.06 in - South 2.3 mph - N/A   Clear
8:00 AM 61 °F 57 °F 84%  in 12 mi South 2.3 mph - -  
8:00 AM 60.8 °F 57.2 °F 88% 30.06 in - South 1.2 mph - N/A   Clear
8:35 AM 64.4 °F 57.2 °F 77% 30.04 in - SW 2.3 mph - N/A   Clear
9:00 AM 64.4 °F 53.6 °F 68% 30.06 in - West 2.3 mph - N/A   Clear
9:42 AM 69.8 °F 53.6 °F 56% 30.04 in - NNE 1.2 mph - N/A   Clear
10:28 AM 75.2 °F 48.2 °F 38% 30.01 in 6.2 mi North 3.5 mph - N/A   Partly Cloudy
11:00 AM 80 °F 46 °F 20%  in 12 mi NNW 8.1 mph - -   Clear
11:00 AM 78.8 °F 44.6 °F 30% 30.01 in - NNW 6.9 mph - N/A   Clear
11:31 AM 84.2 °F 44.6 °F 25% 29.98 in - WNW 10.4 mph - N/A   Clear
12:00 PM 84.2 °F 44.6 °F 25% 29.98 in - West 10.4 mph - N/A   Clear
1:00 PM 86.0 °F 35.6 °F 17% 29.95 in 6.2 mi West 13.8 mph - N/A   Partly Cloudy
2:00 PM 85 °F 36 °F 9%  in 12 mi WSW 11.5 mph - -   Scattered Clouds
2:00 PM 84.2 °F 35.6 °F 18% 29.92 in 6.2 mi WSW 11.5 mph - N/A   Partly Cloudy
3:00 PM 86.0 °F 35.6 °F 17% 29.92 in - WSW 10.4 mph - N/A   Clear
4:00 PM 82.4 °F 32.0 °F 16% 29.92 in 6.2 mi WSW 15.0 mph - N/A   Scattered Clouds
5:00 PM 80 °F 35 °F 11%  in 6 mi WSW 11.5 mph - -   Haze
5:00 PM 78.8 °F 33.8 °F 20% 29.95 in - WSW 11.5 mph - N/A   Clear
6:00 PM 75.2 °F 35.6 °F 24% 29.95 in - WSW 9.2 mph - N/A   Clear
8:00 PM 70 °F 40 °F 22%  in 12 mi WSW 5.8 mph - -   Partly Cloudy
8:00 PM 69.8 °F 39.2 °F 33% 29.98 in - WSW 4.6 mph - N/A   Clear
9:00 PM 68.0 °F 39.2 °F 35% 29.98 in - WSW 5.8 mph - N/A   Unknown
10:00 PM 66.2 °F 39.2 °F 37% 30.01 in - WSW 5.8 mph - N/A   Unknown
11:00 PM 67 °F 39 °F 25%  in - WNW 3.5 mph - -  
11:00 PM 66.2 °F 39.2 °F 37% 30.01 in - WNW 2.3 mph - N/A   Unknown